Hourly Weather Roundup
Issued by NWS Central Illinois

Home | Current Version | Previous Version | Text Only | Print | Product List | Glossary On
Versions: 1 2 3 4 5 6 7 8 9 10 11 12 13 14 15 16 17 18 19 20 21 22 23 24 25 26 27 28 29 30 31 32 33 34 35 36 37 38 39 40 41 42 43 44 45 46 47 48 49 50
000
NZUS43 KILX 241010
HWRILX

Area Weather Roundup
National Weather Service Lincoln IL
500 AM CDT TUE OCT 24 2017

NOTE:  "FAIR" indicates few or no clouds below 12,000 feet, with
       no sigificant weather and/or obstructions to visibility.


CITY           SKY/WX    TMP DP  RH WIND       PRES   REMARKS
Bloomington    LGT RAIN  46  38  73 W13       29.65S
Champaign      NOT AVBL
Danville       CLOUDY    46  43  90 SW12      29.62S
Decatur        CLOUDY    48  38  68 W14G23    29.69S
Effingham      CLOUDY    49  40  69 W13G18    29.74F
Flora          CLOUDY    52  40  64 W9G16     29.76S
Jacksonville   CLOUDY    49  35  58 W15G24    29.73S
Lacon          CLOUDY    47  37  68 W10G17    29.63S
Lawrenceville  LGT RAIN  50  43  77 W8        29.74S
Litchfield     CLOUDY    49  36  60 W13       29.75S
$$


CITY           SKY/WX    TMP DP  RH WIND       PRES   REMARKS
Lincoln        CLOUDY    49  39  67 W6        29.68F
Macomb         LGT RAIN  48  34  57 NW18G31   29.74R
Mattoon        CLOUDY    47  41  80 W9        29.69F
Mt Carmel AP   MOCLDY    49  44  81 W10       29.74S
Olney-Noble AP CLOUDY    50  41  70 W12       29.75S
Paris AP       CLOUDY    46  42  86 W15       29.68F
Peoria         CLOUDY    48  36  63 W12       29.67R
Pontiac        CLOUDY    47  44  89 W15G21    29.62S
Rantoul        CLOUDY    48  43  83 W9        29.64S
Robinson       CLOUDY    48  42  81 W13       29.73S
Springfield    CLOUDY    51  36  56 W18G33    29.71F
Taylorville    CLOUDY    48  37  65 W12       29.72S
$$

...REGIONAL REPORTS...


CITY           SKY/WX    TMP DP  RH WIND       PRES   REMARKS
Chicago O`Hare LGT RAIN  48  45  89 W12G20    29.51F
Kankakee       CLOUDY    47  44  89 W15G22    29.59S
Moline         CLOUDY    49  33  54 NW21G29   29.66S
Mount Sterling CLOUDY    49  34  56 NW16G23   29.74S
Mount Vernon   MOCLDY    50  39  66 W6        29.79R
Pittsfield     MOCLDY    51  35  55 W14G25    29.77S
Quincy         CLOUDY    50  35  56 W20G28    29.76S
Rockford       RAIN      45  43  93 W16G22    29.57F
$$


CITY           SKY/WX    TMP DP  RH WIND       PRES   REMARKS
Burlington     CLOUDY    47  30  51 NW17G33   29.73R
Cedar Rapids   CLOUDY    44  30  57 NW22G29   29.72R
Des Moines     PTCLDY    42  30  62 NW26G35   29.87R WCI  32
Kirksville     CLOUDY    48  38  68 NW12      29.84F
Ottumwa        CLEAR     44  32  62 NW22G33   29.80S
St Louis       LGT RAIN  52  34  50 W22G33    29.80S
$$


CITY           SKY/WX    TMP DP  RH WIND       PRES   REMARKS
Terre Haute    MOCLDY    47  42  83 W9        29.69S
Evansville     MOCLDY    49  44  83 W8        29.78S
Indianapolis   MOCLDY    48  45  89 W15       29.65S
Lafayette      MOCLDY    46  43  89 SW9       29.62R
Madison        RAIN      45  42  89 NW12G22   29.54R
Milwaukee      LGT RAIN  50  49  96 NW6       29.47R
$$






USA.gov is the U.S. government's official web portal to all federal, state and local government web resources and services.